Regional Weather Roundup
Issued by NWS Jackson, KY

Home | Current Version | Previous Version | Text Only | Print | Product List | Glossary On
Versions: 1 2 3 4 5 6 7 8 9 10 11 12 13 14 15 16 17 18 19 20 21 22 23 24 25 26 27 28
000
ASUS43 KJKL 301110
RWRJKL

EAST KENTUCKY HOURLY WEATHER ROUNDUP
NATIONAL WEATHER SERVICE JACKSON KY
700 AM EDT TUE AUG 30 2016

NOTE: "FAIR" INDICATES FEW OR NO CLOUDS BELOW 12,000 FEET WITH
NO SIGNIFICANT WEATHER AND/OR OBSTRUCTIONS TO VISIBILITY.

* THESE REPORTS ARE NOT UNDER NWS QUALITY CONTROL AND MAY NOT
  REPORT WEATHER SUCH AS PRECIPITATION AND FOG.

KYZ079-080-083-085-087-088-110-112-115-119-120-301200
...EASTERN KENTUCKY...

CITY           SKY/WX    TMP DP  RH WIND       PRES   REMARKS
JACKSON        CLEAR     70  68  93 CALM      30.16S
LONDON         CLEAR     68  66  93 NE3       30.14S
SOMERSET*      CLEAR     68  68 100 CALM      30.14S
MONTICELLO*    PTCLDY   N/A N/A N/A W7        30.14F HAZE
WILLIAMSBURG*  CLOUDY    68  68 100 CALM      30.14S VSB 1/4
MIDDLESBORO*   CLOUDY    68  68 100 CALM      30.15S FOG
HARLAN APT*    CLOUDY    68  66  94 CALM      30.17S
PIKE CO APT*     N/A     68  68 100 CALM      30.16S
BIG SANDY APT* FOG       68  68 100 CALM      30.16S VSB<1/4
MOREHEAD APT*  SUNNY     70  64  83 CALM      30.17S
$$

KYZ035-036-041-042-044-050-067-078-099-301200
...CENTRAL KENTUCKY...

CITY           SKY/WX    TMP DP  RH WIND       PRES   REMARKS
MT STERLING*   CLEAR     68  68 100 E3        30.17S
FLEMING/MASON* CLEAR     68  67  98 CALM      30.17S
DANVILLE*      CLEAR     66  66 100 CALM      30.15S
LEXINGTON      CLEAR     71  67  87 NE7       30.15R
FRANKFORT      CLEAR     71  67  87 CALM      30.13S
LOUISVILLE     PTCLDY    74  71  91 N5        30.12R
LEBANON*         N/A     70  70 100 CALM      30.14R FOG
GLASGOW*       CLEAR     71  71 100 NE3       30.11S
BOWLING GREEN  CLEAR     72  70  93 CALM      30.10S
$$

KYZ091>093-OHZ055-061-077-WVZ005-015-034-035-042-301200
...SOUTHERN OHIO/WEST VIRGINIA...

CITY           SKY/WX    TMP DP  RH WIND       PRES   REMARKS
COVINGTON      CLEAR     73  69  87 NE5       30.16S
COLUMBUS       CLEAR     65  59  81 CALM      30.17S
DAYTON         CLEAR     67  63  87 CALM      30.19R
WILMINGTON     CLEAR     65  63  93 E3        30.17S
HUNTINGTON     CLEAR     70  67  90 N3        30.15R
CHARLESTON     FOG       68  67  96 CALM      30.15S VSB 1/4
PINEVILLE*     FOG       67  64  90 MISG      30.23S VSB 1/4
BECKLEY        CLEAR     65  63  93 CALM      30.22S
BLUEFIELD      CLEAR     63  62  97 SE5       30.24S
LOGAN CO APT*  FOG       68  68 100 CALM      30.17R VSB<1/4
$$

VAZ002-007-008-TNZ017-027-036-066-071-301200
...SOUTHWEST VIRGINIA/EAST TENNESSEE...

CITY           SKY/WX    TMP DP  RH WIND       PRES   REMARKS
WISE*          CLEAR     64  64 100 CALM      30.23S
JONESVILLE*      N/A     64  64 100 CALM      30.18S
ABINGDON*      CLEAR     68  65  90 CALM      30.19F
BRISTOL        CLEAR     65  63  93 CALM      30.16S FOG
MORRISTOWN*    SUNNY     72  66  83 E6        30.13S
SEVIERVILLE*   SUNNY     63  63 100 CALM      30.13R
KNOXVILLE      CLEAR     69  63  81 E3        30.11S
CROSSVILLE     CLEAR     68  67  96 CALM      30.16S FOG
NASHVILLE      CLEAR     74  70  87 CALM      30.09S
$$

...KEY TO REMARKS...
VSB - VISIBILITY IN MILES
WCI - WIND CHILL INDEX
HX  - HEAT INDEX

$$




USA.gov is the U.S. government's official web portal to all federal, state and local government web resources and services.